BARN14 YWLM-YAMB

Flight info

Callsign BARN14
Flight time 0h 55m
Altitude 34000
Route YWLM NELSN 324153S1522827E 304344S1532550E SEMAJ LOTMA 274747S1532530E LAGOB 274537S1525050E YAMB
Aircraft F35/L-SDE3FGHIRWY/LB1

Departure

Time 2026-04-26 02:08
Airport Newcastle Airport (YWLM)

Arrival

Time 2026-04-26 03:03
Airport RAAF Base Amberley (YAMB)
Time Latitude Longitude Altitude Speed Heading
2026-04-26 01:56 -32.79035 151.83734 25 ft 0 kts 234°
2026-04-26 01:58 -32.79054 151.83720 26 ft 6 kts 173°
2026-04-26 01:58 -32.79111 151.83763 26 ft 11 kts 144°
2026-04-26 01:59 -32.79163 151.83740 25 ft 13 kts 220°
2026-04-26 01:59 -32.79234 151.83670 25 ft 13 kts 220°
2026-04-26 01:59 -32.79305 151.83599 25 ft 14 kts 220°
2026-04-26 01:59 -32.79379 151.83525 25 ft 14 kts 220°
2026-04-26 02:00 -32.79355 151.83444 25 ft 14 kts 311°
2026-04-26 02:00 -32.79291 151.83355 28 ft 14 kts 310°
2026-04-26 02:00 -32.79228 151.83360 26 ft 9 kts 39°
2026-04-26 02:00 -32.79193 151.83355 26 ft 9 kts 314°
2026-04-26 02:01 -32.79155 151.83297 25 ft 5 kts 278°
2026-04-26 02:01 -32.79165 151.83279 27 ft 0 kts 219°
2026-04-26 02:05 -32.79167 151.83278 26 ft 3 kts 219°
2026-04-26 02:05 -32.79154 151.83234 25 ft 13 kts 312°
2026-04-26 02:06 -32.79147 151.83162 25 ft 13 kts 274°
2026-04-26 02:06 -32.79064 151.83037 26 ft 26 kts 311°
2026-04-26 02:06 -32.78946 151.82871 25 ft 26 kts 311°
2026-04-26 02:06 -32.78827 151.82706 25 ft 26 kts 310°
2026-04-26 02:07 -32.78710 151.82543 25 ft 26 kts 310°
2026-04-26 02:07 -32.78627 151.82374 25 ft 21 kts 253°
2026-04-26 02:07 -32.78731 151.82293 25 ft 13 kts 162°
2026-04-26 02:07 -32.78773 151.82342 26 ft 48 kts 130°
2026-04-26 02:08 -32.79541 151.83411 385 ft 252 kts 130°
2026-04-26 02:08 -32.80764 151.85121 1906 ft 267 kts 129°
2026-04-26 02:08 -32.81902 151.86706 3277 ft 254 kts 129°
2026-04-26 02:08 -32.82948 151.88411 4487 ft 254 kts 110°
2026-04-26 02:09 -32.83115 151.90494 5731 ft 257 kts 75°
2026-04-26 02:09 -32.82254 151.92359 7013 ft 264 kts 51°
2026-04-26 02:09 -32.81057 151.94038 8293 ft 270 kts 53°
2026-04-26 02:09 -32.80011 151.95928 9650 ft 276 kts 61°
2026-04-26 02:10 -32.79141 151.98000 10975 ft 285 kts 67°
2026-04-26 02:10 -32.78412 152.00202 12349 ft 288 kts 71°
2026-04-26 02:10 -32.77755 152.02490 13827 ft 297 kts 72°
2026-04-26 02:10 -32.77137 152.04852 15250 ft 302 kts 76°
2026-04-26 02:11 -32.76722 152.07317 16719 ft 308 kts 81°
2026-04-26 02:11 -32.76358 152.09957 18420 ft 374 kts 79°
2026-04-26 02:11 -32.75717 152.13597 20858 ft 504 kts 78°
2026-04-26 02:11 -32.75019 152.17751 23905 ft 523 kts 80°
2026-04-26 02:12 -32.74311 152.22097 26754 ft 549 kts 79°
2026-04-26 02:12 -32.73530 152.26640 29667 ft 570 kts 79°
2026-04-26 02:12 -32.72384 152.31143 31777 ft 570 kts 64°
2026-04-26 02:12 -32.70360 152.35326 32532 ft 587 kts 50°
2026-04-26 02:13 -32.67485 152.38630 33464 ft 559 kts 35°
2026-04-26 02:13 -32.64068 152.40818 34044 ft 566 kts 24°
2026-04-26 02:13 -32.60386 152.42574 34213 ft 575 kts 21°
2026-04-26 02:14 -32.52899 152.46094 34224 ft 580 kts 23°
2026-04-26 02:14 -32.45444 152.49823 34219 ft 583 kts 24°
2026-04-26 02:15 -32.38291 152.54293 34252 ft 583 kts 31°
2026-04-26 02:15 -32.31147 152.58852 34264 ft 583 kts 31°
2026-04-26 02:16 -32.24122 152.63366 34369 ft 538 kts 30°
2026-04-26 02:16 -32.17531 152.67624 34387 ft 542 kts 29°
2026-04-26 02:17 -32.10913 152.71876 34350 ft 542 kts 30°
2026-04-26 02:17 -32.04275 152.76115 34315 ft 543 kts 30°
2026-04-26 02:18 -31.97639 152.80355 34301 ft 543 kts 30°
2026-04-26 02:18 -31.90983 152.84604 34289 ft 544 kts 30°
2026-04-26 02:19 -31.84328 152.88843 34287 ft 545 kts 30°
2026-04-26 02:19 -31.77650 152.93088 34279 ft 546 kts 30°
2026-04-26 02:20 -31.70971 152.97329 34281 ft 546 kts 30°
2026-04-26 02:20 -31.64275 153.01573 34279 ft 547 kts 30°
2026-04-26 02:21 -31.57575 153.05812 34281 ft 548 kts 30°
2026-04-26 02:21 -31.50863 153.10052 34276 ft 548 kts 30°
2026-04-26 02:22 -31.44143 153.14290 34276 ft 549 kts 30°
2026-04-26 02:22 -31.37418 153.18525 34274 ft 549 kts 30°
2026-04-26 02:23 -31.30726 153.22731 34275 ft 550 kts 30°
2026-04-26 02:23 -31.23981 153.26964 34274 ft 551 kts 29°
2026-04-26 02:24 -31.17225 153.31196 34268 ft 551 kts 29°
2026-04-26 02:24 -31.10462 153.35427 34268 ft 552 kts 29°
2026-04-26 02:25 -31.03685 153.39659 34265 ft 553 kts 29°
2026-04-26 02:25 -30.96907 153.43886 34270 ft 553 kts 29°
2026-04-26 02:26 -30.91218 153.47427 34264 ft 554 kts 29°
2026-04-26 02:26 -30.84468 153.51623 34261 ft 554 kts 29°
2026-04-26 02:27 -30.77656 153.55850 34264 ft 555 kts 29°
2026-04-26 02:27 -30.70844 153.60071 34255 ft 555 kts 29°
2026-04-26 02:28 -30.64020 153.64293 34263 ft 556 kts 29°
2026-04-26 02:28 -30.57184 153.68515 34256 ft 556 kts 29°
2026-04-26 02:29 -30.50349 153.72729 34255 ft 556 kts 29°
2026-04-26 02:29 -30.43507 153.76941 34257 ft 557 kts 29°
2026-04-26 02:30 -30.36464 153.80710 34257 ft 558 kts 22°
2026-04-26 02:30 -30.28970 153.83077 34258 ft 560 kts 14°
2026-04-26 02:31 -30.21485 153.85520 34253 ft 559 kts 14°
2026-04-26 02:31 -30.13974 153.87914 34247 ft 560 kts 15°
2026-04-26 02:32 -30.06457 153.90288 34245 ft 560 kts 15°
2026-04-26 02:32 -29.98934 153.92672 34239 ft 561 kts 15°
2026-04-26 02:33 -29.91406 153.95062 34240 ft 561 kts 15°
2026-04-26 02:33 -29.83879 153.97444 34238 ft 561 kts 15°
2026-04-26 02:34 -29.76337 153.99825 34232 ft 562 kts 15°
2026-04-26 02:34 -29.68806 154.02200 34234 ft 561 kts 15°
2026-04-26 02:35 -29.61269 154.04574 34230 ft 562 kts 15°
2026-04-26 02:35 -29.53726 154.06945 34232 ft 562 kts 15°
2026-04-26 02:36 -29.46185 154.09312 34221 ft 562 kts 15°
2026-04-26 02:36 -29.38638 154.11678 34221 ft 562 kts 15°
2026-04-26 02:37 -29.31093 154.14039 34220 ft 562 kts 15°
2026-04-26 02:37 -29.23544 154.16398 34216 ft 562 kts 14°
2026-04-26 02:37 -29.19696 154.17202 33750 ft 560 kts
2026-04-26 02:38 -29.15894 154.16789 33022 ft 543 kts 342°
2026-04-26 02:38 -29.12421 154.15222 32305 ft 533 kts 330°
2026-04-26 02:38 -29.09205 154.13211 31576 ft 522 kts 327°
2026-04-26 02:38 -29.06095 154.11116 30853 ft 516 kts 327°
2026-04-26 02:39 -29.03036 154.09014 30117 ft 508 kts 327°
2026-04-26 02:39 -28.99946 154.07215 29298 ft 505 kts 334°
2026-04-26 02:39 -28.96766 154.05591 28492 ft 496 kts 332°
2026-04-26 02:39 -28.93660 154.03800 27691 ft 492 kts 332°
2026-04-26 02:40 -28.90593 154.02125 26927 ft 485 kts 333°
2026-04-26 02:40 -28.87563 154.00468 26179 ft 481 kts 333°
2026-04-26 02:40 -28.84577 153.98796 25454 ft 476 kts 333°
2026-04-26 02:40 -28.81602 153.97169 24745 ft 471 kts 334°
2026-04-26 02:41 -28.78669 153.95553 24048 ft 466 kts 334°
2026-04-26 02:41 -28.75797 153.93965 23295 ft 463 kts 334°
2026-04-26 02:41 -28.72881 153.92368 22483 ft 456 kts 334°
2026-04-26 02:41 -28.70055 153.90892 21711 ft 450 kts 338°
2026-04-26 02:42 -28.67154 153.89608 20948 ft 445 kts 340°
2026-04-26 02:42 -28.64239 153.88481 20205 ft 440 kts 346°
2026-04-26 02:42 -28.61269 153.87740 19475 ft 434 kts 351°
2026-04-26 02:42 -28.58326 153.87039 18762 ft 429 kts 347°
2026-04-26 02:43 -28.52584 153.85454 17212 ft 420 kts 349°
2026-04-26 02:43 -28.49752 153.84713 16444 ft 416 kts 348°
2026-04-26 02:43 -28.46961 153.83946 15778 ft 410 kts 348°
2026-04-26 02:44 -28.44183 153.83210 15464 ft 409 kts 349°
2026-04-26 02:44 -28.41416 153.82477 15323 ft 409 kts 348°
2026-04-26 02:44 -28.38647 153.81731 15258 ft 408 kts 348°
2026-04-26 02:44 -28.35881 153.80994 15236 ft 408 kts 349°
2026-04-26 02:45 -28.33110 153.80258 15211 ft 409 kts 349°
2026-04-26 02:45 -28.30342 153.79518 15202 ft 409 kts 348°
2026-04-26 02:45 -28.27569 153.78781 15199 ft 409 kts 348°
2026-04-26 02:45 -28.24802 153.78044 14584 ft 404 kts 348°
2026-04-26 02:46 -28.22077 153.77317 13863 ft 400 kts 348°
2026-04-26 02:46 -28.19384 153.76602 13081 ft 396 kts 349°
2026-04-26 02:46 -28.16726 153.75841 12314 ft 393 kts 341°
2026-04-26 02:46 -28.14406 153.74239 11589 ft 386 kts 316°
2026-04-26 02:47 -28.12789 153.71943 10907 ft 362 kts 303°
2026-04-26 02:47 -28.11511 153.69615 10523 ft 333 kts 300°
2026-04-26 02:47 -28.10402 153.67438 10344 ft 313 kts 299°
2026-04-26 02:47 -28.09417 153.65245 10301 ft 312 kts 293°
2026-04-26 02:48 -28.08609 153.62975 10268 ft 311 kts 291°
2026-04-26 02:48 -28.07760 153.60732 10238 ft 310 kts 294°
2026-04-26 02:48 -28.06863 153.58514 10218 ft 310 kts 294°
2026-04-26 02:48 -28.05997 153.56277 10206 ft 310 kts 293°
2026-04-26 02:49 -28.05142 153.54037 10198 ft 310 kts 293°
2026-04-26 02:49 -28.04192 153.51609 10212 ft 418 kts 294°
2026-04-26 02:49 -28.03002 153.48565 10237 ft 428 kts 294°
2026-04-26 02:49 -28.01798 153.45459 10238 ft 426 kts 294°
2026-04-26 02:50 -28.00603 153.42396 10234 ft 425 kts 294°
2026-04-26 02:50 -27.99406 153.39332 10225 ft 426 kts 294°
2026-04-26 02:50 -27.98229 153.36313 10222 ft 426 kts 294°
2026-04-26 02:50 -27.97031 153.33247 10218 ft 426 kts 294°
2026-04-26 02:51 -27.95834 153.30184 10208 ft 426 kts 294°
2026-04-26 02:51 -27.94620 153.27081 10201 ft 426 kts 294°
2026-04-26 02:51 -27.93420 153.24020 10197 ft 426 kts 294°
2026-04-26 02:51 -27.92220 153.20956 10204 ft 425 kts 294°
2026-04-26 02:52 -27.91037 153.17940 10192 ft 425 kts 294°
2026-04-26 02:52 -27.89840 153.14886 10176 ft 426 kts 294°
2026-04-26 02:52 -27.88639 153.11833 10182 ft 426 kts 294°
2026-04-26 02:52 -27.87438 153.08779 10187 ft 425 kts 294°
2026-04-26 02:53 -27.86215 153.05686 9667 ft 422 kts 294°
2026-04-26 02:53 -27.85054 153.02808 8929 ft 394 kts 295°
2026-04-26 02:53 -27.83946 153.00100 8362 ft 367 kts 295°
2026-04-26 02:53 -27.82950 152.97747 7652 ft 288 kts 296°
2026-04-26 02:54 -27.81962 152.95542 6907 ft 314 kts 297°
2026-04-26 02:54 -27.81002 152.93369 6170 ft 301 kts 295°
2026-04-26 02:54 -27.80114 152.91258 5662 ft 295 kts 295°
2026-04-26 02:54 -27.79244 152.89176 5527 ft 293 kts 295°
2026-04-26 02:55 -27.78369 152.87093 5377 ft 294 kts 295°
2026-04-26 02:55 -27.77498 152.85027 5225 ft 290 kts 295°
2026-04-26 02:55 -27.76630 152.82972 5117 ft 290 kts 295°
2026-04-26 02:55 -27.75767 152.80914 5028 ft 290 kts 295°
2026-04-26 02:56 -27.74901 152.78862 4996 ft 290 kts 295°
2026-04-26 02:56 -27.74032 152.76817 5013 ft 293 kts 295°
2026-04-26 02:56 -27.73107 152.74641 5043 ft 298 kts 295°
2026-04-26 02:56 -27.72230 152.72573 5059 ft 292 kts 295°
2026-04-26 02:57 -27.71351 152.70518 5065 ft 291 kts 295°
2026-04-26 02:57 -27.70473 152.68467 5044 ft 291 kts 295°
2026-04-26 02:57 -27.69607 152.66409 4949 ft 290 kts 295°
2026-04-26 02:57 -27.68755 152.64358 4898 ft 290 kts 295°
2026-04-26 02:58 -27.67907 152.62304 4892 ft 290 kts 294°
2026-04-26 02:58 -27.67066 152.60246 4914 ft 289 kts 294°
2026-04-26 02:58 -27.66117 152.58255 4975 ft 288 kts 311°
2026-04-26 02:58 -27.64411 152.57178 4710 ft 283 kts 349°
2026-04-26 02:59 -27.62472 152.56934 4237 ft 277 kts
2026-04-26 02:59 -27.60683 152.57473 3600 ft 256 kts 41°
2026-04-26 02:59 -27.59551 152.59015 3289 ft 256 kts 60°
2026-04-26 02:59 -27.58588 152.60706 2997 ft 252 kts 62°
2026-04-26 03:00 -27.57654 152.62335 2944 ft 242 kts 60°
2026-04-26 03:00 -27.56764 152.63904 2807 ft 234 kts 66°
2026-04-26 03:00 -27.56267 152.65610 2511 ft 228 kts 86°
2026-04-26 03:00 -27.56485 152.67654 2233 ft 321 kts 110°
2026-04-26 03:01 -27.58309 152.69311 1969 ft 362 kts 158°
2026-04-26 03:01 -27.60647 152.70249 890 ft 354 kts 158°
2026-04-26 03:01 -27.63081 152.71219 1069 ft 366 kts 170°
2026-04-26 03:01 -27.64066 152.70128 1695 ft 159 kts 288°
2026-04-26 03:02 -27.63348 152.69251 1400 ft 179 kts 332°
2026-04-26 03:02 -27.62173 152.68544 1643 ft 201 kts 338°
2026-04-26 03:02 -27.60924 152.68491 1658 ft 186 kts 45°
2026-04-26 03:02 -27.60738 152.69715 925 ft 163 kts 127°
2026-04-26 03:03 -27.61628 152.70286 251 ft 151 kts 154°
2026-04-26 03:03 -27.62547 152.70687 101 ft 140 kts 152°
2026-04-26 03:03 -27.63088 152.70930 96 ft 43 kts 159°
2026-04-26 03:03 -27.63340 152.71040 92 ft 29 kts 157°
2026-04-26 03:04 -27.63395 152.71004 93 ft 10 kts 281°
2026-04-26 03:04 -27.63374 152.70891 94 ft 17 kts 281°
2026-04-26 03:04 -27.63296 152.70806 98 ft 15 kts 339°
2026-04-26 03:04 -27.63164 152.70748 95 ft 25 kts 338°
2026-04-26 03:05 -27.63006 152.70678 97 ft 23 kts 340°
2026-04-26 03:05 -27.62973 152.70599 98 ft 11 kts 251°
2026-04-26 03:05 -27.63004 152.70503 99 ft 12 kts 248°
2026-04-26 03:05 -27.63035 152.70480 100 ft 4 kts 137°
2026-04-26 03:06 -27.63046 152.70497 100 ft 0 kts 123°